GFSFLT1_250_spd_093.txt.gz
Wind_Speed
77 62 57 56 54 50 43 44 49 55 42 50 59 65 61 61 68 70 52 37 32 31 37 43 40 38 38 38 38 42 48 47
73 58 57 46 48 46 39 48 58 58 51 58 60 53 59 63 67 62 42 30 27 32 41 46 41 43 39 40 41 46 51 49
64 59 54 48 49 49 41 46 55 61 53 57 53 56 62 64 60 52 35 28 28 31 34 42 41 40 42 40 44 46 52 52
67 64 55 60 49 43 33 45 54 55 53 57 57 60 61 57 57 42 32 32 30 29 29 33 37 39 43 42 45 50 52 55
62 65 62 59 51 46 42 46 55 60 62 59 57 59 58 61 53 37 35 32 29 28 30 33 35 40 46 48 50 51 52 58
62 65 61 57 58 58 49 47 48 55 57 61 57 58 62 60 51 38 37 32 33 30 31 34 34 42 46 47 51 52 50 62
65 65 62 60 54 41 48 56 60 60 61 58 60 61 62 63 45 42 38 34 32 32 34 34 35 36 42 47 48 51 55 59
57 62 62 59 54 49 43 47 53 58 60 59 61 66 66 50 45 43 38 34 31 31 30 33 33 34 36 40 43 51 57 57
52 54 55 52 44 46 51 55 54 59 60 58 60 61 59 44 39 43 36 32 30 25 27 31 31 28 33 31 35 45 59 51
46 45 47 44 45 47 48 51 56 61 68 66 53 54 51 43 44 41 36 29 26 26 26 29 29 27 32 33 31 29 48 55
42 38 40 44 48 49 42 31 31 43 46 51 58 46 38 40 45 38 33 29 25 23 25 28 28 28 31 34 33 34 32 36
41 36 37 40 40 43 42 44 45 53 48 50 43 40 38 46 43 39 33 27 25 23 22 27 30 28 29 33 33 30 37 34
43 38 41 42 46 49 51 51 50 38 47 50 44 38 43 47 42 38 33 27 26 26 22 21 25 27 32 32 30 31 30 37
43 43 44 48 51 54 56 58 59 60 60 54 38 45 46 45 41 38 33 29 25 24 22 18 27 29 29 35 35 34 34 38
48 47 46 45 46 52 58 53 46 43 42 44 46 49 50 47 44 41 36 33 28 26 22 17 18 23 36 33 36 38 39 37
50 50 50 52 55 56 47 36 37 37 41 41 56 52 51 49 48 43 38 35 32 31 28 22 20 19 22 31 41 41 41 42
48 46 51 50 49 49 45 31 29 39 45 54 55 56 54 52 50 45 43 40 36 34 31 28 27 26 24 24 24 30 38 43
50 52 53 52 49 43 35 35 38 40 53 59 60 59 59 56 53 48 45 43 41 38 35 33 34 34 31 30 32 33 33 35
50 49 51 48 45 36 35 38 43 49 57 68 63 59 61 59 54 50 46 42 42 42 40 41 41 40 39 38 37 37 38 41

GFSFLT1_250_spd_096.txt.gz
Wind_Speed
91 90 88 85 82 74 67 60 57 53 46 42 41 42 42 42 45 51 47 55 60 59 53 33 32 41 39 37 37 36 42 50
82 85 86 82 81 77 70 62 57 57 51 47 46 42 46 43 49 53 51 53 53 64 41 30 35 41 41 39 38 38 41 50
69 70 70 68 66 66 67 59 53 58 54 52 46 47 43 46 52 50 51 55 55 51 31 28 33 44 46 43 41 40 44 52
62 63 62 60 58 59 63 60 52 47 50 49 42 45 49 46 49 53 51 52 52 39 27 27 35 44 45 44 44 42 46 49
54 52 49 51 51 51 58 60 57 48 43 45 43 45 45 50 56 49 52 51 55 33 30 30 32 40 45 40 49 40 47 47
46 45 46 49 44 56 51 44 46 54 45 49 47 46 46 46 48 50 53 52 52 32 37 35 35 37 37 42 42 41 47 49
42 44 42 44 48 58 59 53 50 54 53 53 50 48 43 52 53 48 49 55 44 36 40 38 34 31 33 36 40 44 47 50
41 40 40 47 52 55 61 57 53 54 55 52 50 51 51 53 52 50 47 52 38 38 42 39 37 35 35 37 37 44 50 51
38 42 47 48 49 53 57 59 54 38 40 43 47 43 44 44 48 56 51 40 33 39 41 39 37 35 38 38 38 39 48 53
37 41 41 49 55 54 56 53 45 49 46 40 43 45 49 52 51 42 44 37 34 40 42 39 34 32 31 32 33 34 40 50
39 38 40 44 49 53 49 48 48 35 32 31 36 40 42 38 42 45 39 35 35 41 39 36 32 31 30 31 29 26 27 32
35 35 38 39 42 44 48 38 39 28 21 40 46 43 46 47 43 38 39 37 40 40 37 34 29 27 27 27 28 31 28 22
36 38 40 42 42 47 49 47 41 35 35 59 57 47 51 54 48 42 37 39 42 39 36 31 27 25 31 26 28 31 28 27
39 37 38 39 45 48 47 47 49 48 44 55 58 51 60 58 53 44 40 41 41 38 34 28 26 22 32 28 29 30 31 34
39 36 39 42 37 36 40 43 48 52 55 43 50 58 58 57 62 45 46 44 42 38 33 28 27 25 22 30 32 33 35 34
40 39 41 43 39 35 40 42 45 49 52 52 55 61 58 57 59 47 49 46 43 39 35 28 24 25 27 29 37 40 40 40
39 41 43 43 40 43 44 44 47 51 53 59 51 51 52 50 50 51 51 48 45 42 38 34 30 27 26 24 36 41 45 45
45 41 38 42 44 46 48 50 52 52 48 40 36 36 41 47 54 55 53 51 47 45 42 38 36 33 33 30 28 30 39 44
50 47 45 44 45 47 48 51 54 49 39 41 36 41 49 53 58 58 57 55 53 49 48 44 41 38 37 37 35 34 34 35

GFSFLT1_250_spd_099.txt.gz
Wind_Speed
74 72 71 73 73 75 82 75 75 79 78 70 58 56 55 50 49 40 37 38 35 41 49 51 55 56 43 30 42 45 38 36
76 76 74 70 73 72 76 79 78 76 78 71 60 55 56 53 51 41 39 43 38 43 48 52 56 57 35 32 47 47 38 35
71 72 72 69 71 71 71 73 80 78 76 76 72 59 56 54 50 42 46 40 38 41 48 49 54 50 31 35 45 43 34 39
68 69 71 69 66 69 69 69 72 76 84 80 79 64 57 55 49 46 49 43 41 41 46 48 50 39 28 37 38 38 34 37
68 68 66 63 59 62 63 62 62 66 68 68 63 57 56 57 50 50 45 45 43 44 46 49 50 32 28 36 41 42 40 38
59 55 55 54 53 56 57 57 56 56 54 56 56 56 56 57 49 44 44 42 44 43 48 46 42 31 29 35 41 42 46 44
51 50 47 49 45 44 46 46 49 52 55 54 51 56 55 53 53 50 45 41 44 49 50 46 42 34 35 35 38 41 44 49
46 46 38 37 36 38 38 41 46 46 54 56 56 57 57 57 50 46 45 48 45 46 44 48 35 36 40 39 36 42 46 51
42 39 30 33 33 34 33 37 42 46 49 56 54 49 49 46 41 43 45 40 38 44 46 42 39 37 42 43 40 39 41 47
38 31 32 33 35 40 39 41 48 46 48 47 49 38 39 33 36 37 36 42 42 41 41 44 39 38 41 43 39 41 43 42
33 32 36 37 40 49 47 40 48 48 43 42 40 41 32 29 32 32 39 39 34 37 42 42 41 39 40 40 38 38 36 37
35 39 38 37 41 50 49 44 48 46 40 35 37 36 35 31 33 36 43 45 45 38 41 43 42 37 37 37 37 34 32 35
40 39 38 37 40 48 52 49 50 48 41 41 36 35 35 38 42 47 53 53 50 45 41 42 41 34 34 36 33 28 32 30
38 40 41 38 41 44 49 50 54 48 48 50 47 34 20 43 52 55 49 50 50 41 41 40 38 34 34 34 30 29 29 32
39 45 45 44 44 43 42 44 48 54 52 53 52 49 49 49 53 54 56 53 51 41 39 41 35 35 34 31 28 28 29 31
37 43 45 47 46 45 46 51 53 55 53 56 52 50 51 55 55 56 58 56 56 46 35 43 37 34 35 31 29 29 30 33
41 41 48 49 48 48 51 54 56 57 57 55 56 58 58 54 56 59 65 66 57 51 39 47 41 38 35 34 34 32 33 36
42 42 45 43 43 43 47 46 51 53 56 57 62 63 61 62 65 61 67 64 60 52 46 52 45 42 39 35 34 33 35 40
46 38 39 42 41 42 45 47 42 49 48 52 55 59 59 63 65 65 65 59 49 51 55 55 50 47 44 40 38 36 34 36

GFSFLT1_250_spd_102.txt.gz
Wind_Speed
81 76 79 80 79 80 74 67 62 60 62 66 68 67 63 65 61 55 53 51 47 47 44 37 36 38 38 46 48 52 40 33
82 84 85 80 82 80 78 70 65 65 62 68 70 66 67 64 64 60 53 51 48 45 43 35 38 35 40 44 44 46 33 34
88 90 88 86 86 82 73 66 65 64 61 65 72 73 71 65 63 62 54 52 51 50 41 34 37 37 41 43 44 41 30 34
89 84 84 85 83 75 74 69 63 61 61 65 69 73 73 70 63 59 60 54 53 56 51 44 40 41 38 41 39 33 30 38
80 83 82 79 72 71 68 66 63 63 63 63 64 68 72 71 70 66 61 51 53 53 48 41 39 41 42 42 41 29 35 36
79 75 71 69 67 71 66 66 63 66 63 63 64 67 68 70 71 61 54 54 58 54 50 36 38 41 42 41 36 30 36 36
69 63 62 63 66 65 64 60 59 61 59 58 57 58 59 62 62 59 59 54 55 49 48 35 34 40 41 40 40 31 37 42
62 59 58 57 56 52 51 47 49 49 51 52 52 52 49 54 53 49 52 52 53 53 46 39 37 42 43 43 36 34 36 40
58 56 52 47 41 40 39 40 40 40 44 46 48 48 46 47 46 49 50 53 49 45 42 37 34 39 43 41 38 37 39 39
49 47 39 35 35 36 32 30 30 29 34 39 38 39 42 44 44 45 44 45 34 32 34 33 40 46 41 39 39 38 41 42
40 37 29 31 31 29 28 30 28 24 28 33 35 34 38 39 36 31 33 30 29 31 36 38 39 35 35 39 39 38 41 42
37 33 27 29 31 29 32 35 32 27 30 28 29 32 31 33 28 31 32 28 28 32 43 42 40 37 36 42 42 38 39 38
34 34 29 34 34 37 39 41 40 39 39 34 32 36 38 39 36 37 33 31 36 40 46 50 43 41 42 47 41 38 36 36
36 37 36 43 40 42 50 50 48 44 46 43 41 39 40 44 42 43 37 39 39 41 46 52 46 44 46 47 37 37 35 34
40 37 38 45 42 40 47 53 50 48 47 47 46 47 42 41 38 39 37 38 42 53 53 53 49 49 43 40 34 36 35 32
44 37 42 46 42 40 46 53 54 50 52 50 51 49 44 37 34 38 40 50 50 52 52 55 55 48 43 39 36 34 34 32
42 42 46 46 43 42 42 46 54 52 51 47 46 47 46 48 41 45 45 43 46 49 55 58 56 49 46 41 41 37 35 34
45 45 50 49 47 46 45 43 48 53 54 55 52 47 51 55 56 51 48 49 53 56 61 65 60 59 55 48 46 42 37 40
47 46 50 52 50 50 48 46 46 51 55 54 52 55 55 57 58 58 57 59 60 63 63 62 57 55 55 48 48 48 43 44

GFSFLT1_250_spd_108.txt.gz
Wind_Speed
78 78 79 79 79 80 80 79 78 77 78 78 77 75 74 73 69 68 68 68 61 56 53 44 44 43 43 37 37 36 36 41
81 81 81 80 81 81 82 83 82 82 83 81 80 79 78 77 74 74 72 70 67 61 54 49 44 44 45 38 37 36 38 40
85 85 84 84 83 83 85 87 89 89 87 84 83 81 81 80 77 75 71 69 70 63 56 55 48 46 47 47 39 38 37 38
86 87 88 89 90 90 91 93 93 92 91 89 89 89 87 82 77 74 70 73 72 66 61 59 52 48 45 47 44 40 39 40
86 88 91 92 93 93 93 92 93 94 95 94 92 90 86 82 77 80 76 75 74 68 64 61 57 51 45 44 43 40 40 43
88 89 90 91 93 93 93 95 95 96 94 91 89 87 83 77 76 75 76 74 68 66 61 62 62 53 47 45 45 41 41 43
92 93 92 92 92 94 95 94 94 94 92 90 88 83 78 77 73 72 68 66 63 60 59 60 64 56 48 47 44 39 39 41
97 94 93 93 94 94 92 88 87 90 89 85 84 84 78 73 65 62 62 60 59 62 58 58 62 52 49 44 38 36 39 41
98 96 95 93 93 91 89 88 84 81 72 66 64 66 61 56 55 56 56 57 57 61 55 55 55 57 46 43 40 38 38 36
93 92 91 88 84 82 76 66 61 57 52 49 49 50 50 50 52 55 51 53 58 55 52 53 52 53 51 46 41 39 38 37
89 83 77 72 70 64 56 52 48 47 47 46 46 46 44 42 42 44 48 53 53 51 51 46 51 51 47 39 41 42 39 38
76 67 61 61 54 47 44 40 38 38 35 35 34 23 16 20 28 29 34 39 44 47 49 44 51 55 49 40 42 46 43 44
63 53 54 45 41 39 34 31 28 27 28 31 32 30 26 21 25 28 29 33 36 43 47 47 48 52 49 44 43 39 37 40
49 50 43 37 35 32 30 27 28 29 31 31 31 32 33 32 29 27 27 29 31 36 47 53 50 49 48 45 46 43 47 46
42 39 36 32 31 31 30 32 36 36 36 34 31 32 35 33 31 32 33 32 33 36 44 45 48 49 47 45 47 44 46 45
35 33 29 30 28 29 31 36 41 40 39 35 33 36 36 34 37 38 40 40 37 41 44 43 43 45 46 47 49 50 52 53
31 29 29 30 28 32 36 44 44 41 41 37 35 37 41 44 45 42 41 43 45 48 52 50 47 48 50 52 56 57 58 55
30 27 29 30 32 34 39 44 47 47 47 42 39 43 48 47 47 39 39 43 42 44 45 46 47 48 51 53 54 58 60 60
29 28 32 33 36 38 40 43 51 52 49 48 45 45 45 49 47 41 41 39 40 43 45 49 51 51 55 52 53 52 57 53

GFSFLT1_250_spd_114.txt.gz
Wind_Speed
73 67 67 76 71 70 67 67 71 73 75 76 76 77 76 71 68 69 68 72 71 72 69 70 67 63 64 59 61 56 57 56
72 70 73 78 76 74 74 72 71 73 76 77 75 76 75 73 70 71 71 72 75 74 74 70 73 71 69 64 60 61 62 60
74 71 78 80 79 78 77 74 75 75 75 76 77 77 76 74 71 70 73 73 74 76 78 76 75 76 71 66 62 68 67 62
88 85 80 78 79 81 81 80 79 79 78 77 77 76 76 76 77 77 77 78 77 74 81 80 76 74 74 72 70 71 72 60
90 88 84 82 79 83 83 83 82 81 81 79 78 78 76 78 78 79 80 82 82 77 79 85 82 81 78 77 75 72 69 61
89 89 88 86 82 85 84 84 86 84 83 82 82 81 81 80 82 82 83 84 86 84 83 84 88 89 83 79 77 74 71 66
88 88 91 88 85 85 86 87 87 86 86 87 87 87 87 87 87 88 88 89 86 84 82 84 89 90 85 83 78 74 69 64
90 90 93 91 90 87 85 89 90 90 91 91 92 89 90 90 90 90 91 91 87 85 82 81 87 90 87 82 77 71 68 63
86 88 92 92 90 89 89 90 92 93 93 92 93 92 91 91 92 94 91 91 87 84 84 76 67 92 90 80 71 69 63 59
85 87 89 88 86 87 87 88 89 91 91 91 92 90 89 87 88 86 85 85 82 80 78 75 77 88 83 77 73 68 63 49
78 82 85 86 87 88 87 87 87 88 86 86 85 82 85 83 81 80 77 72 70 63 62 63 68 70 70 68 68 60 61 48
73 77 80 83 85 85 84 84 84 84 82 79 81 82 82 79 68 57 51 45 40 36 36 38 39 39 44 48 54 53 54 48
71 75 77 78 79 80 80 80 81 81 79 78 76 77 67 54 46 40 34 31 28 28 25 21 25 27 33 41 43 47 46 51
66 70 72 74 76 78 79 78 78 76 71 69 62 54 44 41 32 28 33 34 35 35 29 20 18 21 34 43 39 45 53 56
64 67 70 72 73 72 70 70 67 62 54 52 45 37 32 32 33 39 39 36 33 26 29 20 19 25 31 38 41 43 52 56
64 65 64 63 62 64 61 57 50 44 42 40 36 31 34 36 44 44 42 36 24 22 27 27 31 34 37 38 42 46 53 50
58 56 55 52 52 48 45 41 36 30 37 38 33 38 38 43 45 40 37 36 37 32 32 34 34 37 43 41 42 43 45 53
55 53 50 47 45 41 36 32 28 34 37 37 39 42 37 43 39 34 32 32 33 34 36 36 36 35 33 33 38 42 46 57
43 41 38 39 36 31 28 26 28 37 38 41 43 44 34 37 35 32 30 33 33 32 29 31 37 36 36 40 42 44 46 58

GFSFLT1_250_spd_117.txt.gz
Wind_Speed
97 91 83 80 78 77 69 67 64 68 68 62 63 65 71 72 71 67 71 76 75 72 74 70 65 60 59 61 61 62 60 60
105 94 88 83 79 84 73 64 69 74 71 70 69 71 73 74 74 73 76 74 68 71 71 69 64 60 68 63 62 64 63 61
107 96 86 81 81 87 82 76 71 74 75 74 74 75 76 76 77 78 78 77 74 71 69 62 62 58 54 64 60 62 66 66
99 87 87 88 87 89 84 82 77 73 75 79 78 78 80 81 79 77 78 75 74 76 74 70 67 62 45 64 61 68 65 66
94 86 89 88 93 90 86 83 80 78 78 78 81 81 80 81 82 81 79 79 77 77 72 70 70 66 64 55 57 78 75 76
87 87 84 87 91 91 88 83 84 83 81 82 80 83 85 83 82 81 82 81 79 78 75 74 72 72 67 68 73 77 80 76
86 87 81 84 88 91 90 89 87 85 85 85 84 83 87 87 86 83 83 83 81 80 82 79 76 72 71 73 75 79 81 77
81 81 79 79 80 83 86 89 87 85 85 87 86 85 86 87 88 87 85 85 85 85 84 84 81 77 77 74 72 75 75 77
76 79 76 75 77 80 82 85 86 86 86 88 88 87 85 85 85 86 88 88 88 89 87 85 84 81 79 79 71 72 78 76
64 69 69 70 76 80 82 81 82 84 86 88 88 87 85 84 85 84 86 86 86 88 88 85 81 78 79 77 72 69 76 75
58 61 60 58 64 76 81 82 83 83 84 85 86 85 82 81 80 81 80 80 82 83 82 81 78 76 78 81 77 74 76 72
49 50 51 47 48 57 69 75 77 79 80 80 81 80 78 77 75 75 76 77 74 74 77 79 77 72 71 76 71 73 78 66
46 39 40 43 44 47 53 61 67 71 74 75 76 75 69 66 70 74 73 69 69 69 63 57 54 48 48 51 50 62 73 58
39 35 40 41 42 45 49 53 58 63 68 69 67 65 65 67 68 68 64 61 51 44 40 40 40 36 29 31 32 35 39 44
39 39 38 39 43 47 50 53 57 58 57 58 60 61 61 61 58 53 48 41 35 34 33 32 33 35 33 33 29 30 29 32
43 44 45 47 49 51 54 56 55 53 53 53 50 50 49 44 41 40 35 37 42 38 36 36 37 34 39 39 34 22 24 32
46 48 51 53 52 49 50 51 49 48 45 40 40 38 34 34 35 34 38 45 44 41 39 36 31 34 31 26 24 21 24 31
49 50 50 50 48 48 44 41 39 34 28 28 29 29 33 33 34 36 43 47 42 39 35 37 38 33 43 30 22 38 37 36
44 47 48 46 45 41 36 36 29 24 23 30 33 34 34 35 37 38 44 40 40 40 39 38 37 36 38 46 50 58 42 41